CW9414 Weather Reports


time (UTC)temp
C
wind
direction
speed
KPH
gust
KPH
rain 1hr
cm
rain 24hr
cm
rain mn
cm
humidity
%
barometer
mb
20260504034405 19 151 0.0 6.4 0.00 0.00 0.00 55 1014.8
20260504033405 20 151 0.0 8.0 0.00 0.00 0.00 54 1014.8
20260504032405 20 151 0.0 6.4 0.00 0.00 0.00 53 1014.5
20260504031408 20 151 1.6 6.4 0.00 0.00 0.00 52 1014.4
20260504030405 20 151 8.0 8.0 0.00 0.00 0.00 52 1014.4
20260504025405 20 151 0.0 9.7 0.00 0.00 0.00 51 1014.4
20260504024405 20 154 6.4 9.7 0.00 0.00 0.00 50 1014.4
20260504023405 21 155 3.2 6.4 0.00 0.00 0.00 49 1014.4
20260504022405 21 157 1.6 4.8 0.00 0.00 0.00 48 1014.3
20260504021406 21 150 3.2 6.4 0.00 0.00 0.00 47 1014.1
20260504020405 21 149 1.6 6.4 0.00 0.00 0.00 47 1014.1
20260504015405 22 180 0.0 8.0 0.00 0.00 0.00 46 1013.9
20260504014408 22 129 0.0 4.8 0.00 0.00 0.00 45 1013.9
20260504013406 22 120 3.2 4.8 0.00 0.00 0.00 44 1013.9
20260504012405 22 165 3.2 6.4 0.00 0.00 0.00 43 1013.9
20260504011405 23 165 6.4 6.4 0.00 0.00 0.00 42 1014.0
20260504010404 23 165 0.0 8.0 0.00 0.00 0.00 41 1014.0
20260504005405 23 180 3.2 9.7 0.00 0.00 0.00 41 1014.0
20260504004405 23 147 3.2 8.0 0.00 0.00 0.00 39 1014.0
20260504003405 24 147 1.6 8.0 0.00 0.00 0.00 38 1014.0
20260504002405 25 147 0.0 8.0 0.00 0.00 0.00 37 1014.0
20260504001405 25 142 3.2 11.3 0.00 0.00 0.00 36 1014.0
20260504000409 26 171 3.2 14.5 0.00 0.00 0.00 34 1014.0
20260503235404 26 154 4.8 8.0 0.00 0.00 0.00 33 1014.0
20260503234404 27 159 1.6 4.8 0.00 0.00 0.00 31 1014.0
20260503233405 27 157 0.0 9.7 0.00 0.00 0.00 29 1014.0
20260503232404 27 180 1.6 8.0 0.00 0.00 0.00 28 1014.4
20260503231404 27 183 1.6 3.2 0.00 0.00 0.00 28 1014.2
20260503230405 27 188 3.2 3.2 0.00 0.00 0.00 28 1014.2
20260503225406 27 146 1.6 6.4 0.00 0.00 0.00 27 1014.4
20260503224408 27 148 3.2 8.0 0.00 0.00 0.00 27 1014.6
20260503223405 28 161 4.8 11.3 0.00 0.00 0.00 27 1014.6
20260503222405 28 148 3.2 9.7 0.00 0.00 0.00 27 1014.7
20260503221404 28 140 8.0 11.3 0.00 0.00 0.00 26 1014.9
20260503220404 28 161 3.2 8.0 0.00 0.00 0.00 27 1014.9
20260503215405 28 161 1.6 6.4 0.00 0.00 0.00 27 1015.0
20260503214404 28 168 6.4 8.0 0.00 0.00 0.00 28 1015.2
20260503213405 28 186 8.0 9.7 0.00 0.00 0.00 25 1015.2
20260503212408 28 164 3.2 9.7 0.00 0.00 0.00 26 1015.5
20260503211405 28 172 3.2 8.0 0.00 0.00 0.00 26 1015.6
20260503210408 28 167 4.8 14.5 0.00 0.00 0.00 25 1015.6
20260503205405 29 161 6.4 12.9 0.00 0.00 0.00 27 1015.7
20260503204405 29 157 1.6 6.4 0.00 0.00 0.00 27 1016.2
20260503203404 29 153 3.2 4.8 0.00 0.00 0.00 27 1016.2
20260503202404 29 153 3.2 4.8 0.00 0.00 0.00 27 1016.2
20260503201404 29 153 1.6 3.2 0.00 0.00 0.00 28 1016.6
20260503200405 28 153 0.0 3.2 0.00 0.00 0.00 30 1016.6
20260503195408 28 153 3.2 4.8 0.00 0.00 0.00 29 1016.7
20260503194408 28 194 0.0 4.8 0.00 0.00 0.00 28 1017.1
20260503193408 28 196 3.2 6.4 0.00 0.00 0.00 29 1017.1
20260503192405 28 148 3.2 11.3 0.00 0.00 0.00 28 1017.2
20260503191404 28 78 1.6 6.4 0.00 0.00 0.00 28 1017.6
20260503190404 28 73 0.0 8.0 0.00 0.00 0.00 28 1017.6
20260503185404 28 65 6.4 9.7 0.00 0.00 0.00 30 1017.7
20260503184407 28 153 1.6 9.7 0.00 0.00 0.00 28 1017.8
20260503183404 28 152 3.2 6.4 0.00 0.00 0.00 31 1017.8
20260503182404 28 152 0.0 3.2 0.00 0.00 0.00 32 1018.2
20260503181404 27 152 0.0 1.6 0.00 0.00 0.00 35 1018.3
20260503180406 27 152 4.8 8.0 0.00 0.00 0.00 32 1018.3
20260503175405 27 338 1.6 6.4 0.00 0.00 0.00 32 1018.7
20260503174404 27 338 1.6 4.8 0.00 0.00 0.00 34 1018.8
20260503173405 26 336 0.0 8.0 0.00 0.00 0.00 34 1018.8
20260503172404 26 137 1.6 3.2 0.00 0.00 0.00 35 1019.3
20260503171404 26 136 0.0 6.4 0.00 0.00 0.00 38 1019.3
20260503170404 26 133 4.8 6.4 0.00 0.00 0.00 37 1019.3
20260503150507 20 355 0.0 6.4 0.00 0.00 0.00 63 1019.2
20260503130504 13 355 0.0 0.0 0.00 0.00 0.00 86 1018.4
20260503110504 13 355 0.0 0.0 0.00 0.00 0.00 81 1017.6
20260503090507 13 355 0.0 0.0 0.00 0.00 0.00 77 1016.8
20260503081503 14 355 0.0 0.0 0.00 0.00 0.00 75 1017.0
20260503080503 14 355 0.0 0.0 0.00 0.00 0.00 75 1017.0
20260503072506 15 355 0.0 0.0 0.00 0.00 0.00 74 1017.0
20260503071503 15 355 0.0 0.0 0.00 0.00 0.00 73 1017.2
20260503070503 15 355 0.0 0.0 0.00 0.00 0.00 73 1017.2
20260503054503 16 355 0.0 0.0 0.00 0.00 0.00 69 1017.1
20260503053502 16 355 0.0 0.0 0.00 0.00 0.00 68 1017.1
20260503052503 16 355 0.0 0.0 0.00 0.00 0.00 67 1017.0
20260503051503 16 355 0.0 0.0 0.00 0.00 0.00 67 1017.0
20260503050503 16 355 0.0 0.0 0.00 0.00 0.00 66 1016.9
20260503045503 16 355 0.0 0.0 0.00 0.00 0.00 65 1016.9
20260503044504 16 355 0.0 0.0 0.00 0.00 0.00 65 1016.7
20260503043503 17 5 1.6 0.0 0.00 0.00 0.00 95 1016.7
20260503042502 17 5 1.6 0.0 0.00 0.00 0.00 95 1016.8
20260503041502 17 5 1.6 0.0 0.00 0.00 0.00 95 1017.0
20260503040502 17 5 1.6 0.0 0.00 0.00 0.00 95 1017.0
20260503035502 17 5 1.6 0.0 0.00 0.00 0.00 95 1016.6